This demonstration page uses our WeatherBlox Daily Observations layout. Learn more.

Left ArrowRight Arrow

Hourly Observations for October 22, 2016

Temp ( °F °C ) Dew Point ( °F °C ) Humidity (%) Winds ( mph kmh ) Pressure ( in mb ) Visibility ( mi km ) Precip ( " mm )
12:17 am 00:17 Cloudy 43 6 41 5 93 93 WNW 7 11 30.12 1020 10 16.0934 N/A
12:37 am 00:37 Cloudy 45 7 41 5 87 87 NW 6 9 30.12 1020 10 16.0934 N/A
12:56 am 00:56 Cloudy 45 7 41 5 87 87 WNW 6 9 30.12 1020 10 16.0934 N/A
1:17 am 01:17 Cloudy 45 7 41 5 87 87 NW 6 9 30.12 1020 10 16.0934 N/A
1:36 am 01:36 Cloudy 45 7 41 5 87 87 NW 5 7 30.12 1020 10 16.0934 N/A
1:56 am 01:56 Cloudy 45 7 41 5 87 87 NW 6 9 30.12 1020 10 16.0934 N/A
2:17 am 02:17 Cloudy 45 7 41 5 87 87 WNW 6 9 30.12 1020 10 16.0934 N/A
2:36 am 02:36 Mostly Cloudy 43 6 39 4 87 87 WNW 7 11 30.12 1020 10 16.0934 N/A
2:56 am 02:56 Partly Cloudy 41 5 39 4 93 93 WNW 7 11 30.12 1020 10 16.0934 N/A
3:17 am 03:17 Clear 41 5 37 3 87 87 WNW 6 9 30.12 1020 10 16.0934 N/A
3:36 am 03:36 Clear 39 4 37 3 93 93 WNW 6 9 30.12 1020 10 16.0934 N/A
3:57 am 03:57 Clear 39 4 37 3 93 93 WNW 6 9 30.12 1020 10 16.0934 N/A
4:17 am 04:17 Clear 39 4 36 2 87 87 WNW 6 9 30.12 1020 10 16.0934 N/A
4:36 am 04:36 Clear 39 4 36 2 87 87 WNW 8 13 30.12 1020 10 16.0934 N/A
4:57 am 04:57 Clear 39 4 36 2 87 87 NW 6 9 30.12 1020 10 16.0934 N/A
5:17 am 05:17 Partly Cloudy 39 4 36 2 87 87 WNW 7 11 30.12 1020 10 16.0934 N/A
5:36 am 05:36 Cloudy 39 4 36 2 87 87 WNW 7 11 30.12 1020 10 16.0934 N/A
5:57 am 05:57 Cloudy 39 4 36 2 87 87 WNW 7 11 30.12 1020 10 16.0934 N/A
6:36 am 06:36 Mostly Cloudy 39 4 34 1 81 81 NW 6 9 30.12 1020 10 16.0934 N/A
6:57 am 06:57 Clear 37 3 34 1 87 87 NW 5 7 30.15 1021 10 16.0934 N/A
7:17 am 07:17 Clear 37 3 34 1 87 87 WNW 5 7 30.15 1021 10 16.0934 N/A
7:36 am 07:36 Clear 37 3 34 1 87 87 WNW 5 7 30.15 1021 10 16.0934 N/A
7:57 am 07:57 Clear 37 3 34 1 87 87 WNW 5 7 30.15 1021 10 16.0934 N/A
8:17 am 08:17 Sunny 36 2 34 1 93 93 WNW 5 7 30.15 1021 10 16.0934 N/A
8:36 am 08:36 Sunny 37 3 34 1 87 87 NW 3 6 30.15 1021 10 16.0934 N/A
8:57 am 08:57 Sunny 39 4 36 2 87 87 N N/A 30.12 1020 10 16.0934 N/A
9:17 am 09:17 Sunny 41 5 37 3 87 87 NW 5 7 30.15 1021 10 16.0934 N/A
9:36 am 09:36 Sunny 43 6 37 3 81 81 NW 3 6 30.15 1021 10 16.0934 N/A
9:57 am 09:57 Sunny 45 7 39 4 81 81 WNW 6 9 30.15 1021 10 16.0934 N/A
10:17 am 10:17 Sunny 45 7 39 4 81 81 NW 3 6 30.15 1021 10 16.0934 N/A
10:36 am 10:36 Sunny 46 8 39 4 76 76 NW 3 6 30.15 1021 10 16.0934 N/A
10:57 am 10:57 Sunny 48 9 39 4 71 71 W 6 9 30.15 1021 10 16.0934 N/A
11:16 am 11:16 Sunny 50 10 39 4 67 67 WSW 5 7 30.15 1021 10 16.0934 N/A
11:36 am 11:36 Sunny 52 11 39 4 62 62 W 8 13 30.15 1021 10 16.0934 N/A
11:57 am 11:57 Partly Cloudy 52 11 39 4 62 62 W 9 15 30.18 1022 10 16.0934 N/A
12:16 pm 12:16 Partly Cloudy 52 11 39 4 62 62 W 10 17 30.15 1021 10 16.0934 N/A
12:37 pm 12:37 Partly Cloudy 54 12 37 3 54 54 WNW 9 15 30.15 1021 10 16.0934 N/A
12:57 pm 12:57 Partly Cloudy 54 12 37 3 54 54 W 10 17 30.15 1021 10 16.0934 N/A
1:16 pm 13:16 Partly Cloudy 54 12 37 3 54 54 WNW 13 20 30.15 1021 10 16.0934 N/A
1:37 pm 13:37 Partly Cloudy 55 13 37 3 51 51 WNW 12 19 30.12 1020 10 16.0934 N/A
1:57 pm 13:57 Sunny 54 12 36 2 51 51 W 7 11 30.12 1020 10 16.0934 N/A
2:16 pm 14:16 Sunny 54 12 36 2 51 51 W 6 9 30.12 1020 10 16.0934 N/A
2:37 pm 14:37 Sunny 55 13 36 2 47 47 W 10 17 30.09 1019 10 16.0934 N/A
2:57 pm 14:57 Sunny 55 13 36 2 47 47 W 8 13 30.09 1019 10 16.0934 N/A
3:16 pm 15:16 Sunny 55 13 34 1 44 44 NW 9 15 30.09 1019 10 16.0934 N/A
3:37 pm 15:37 Sunny 57 14 36 2 44 44 WNW 8 13 30.06 1018 10 16.0934 N/A
3:57 pm 15:57 Sunny 57 14 36 2 44 44 NW 8 13 30.06 1018 10 16.0934 N/A
4:16 pm 16:16 Sunny 57 14 36 2 44 44 WNW 14 22 30.06 1018 10 16.0934 N/A
4:37 pm 16:37 Sunny 57 14 37 3 48 48 WNW 8 13 30.06 1018 10 16.0934 N/A
4:57 pm 16:57 Sunny 57 14 36 2 44 44 W 9 15 30.06 1018 10 16.0934 N/A
5:16 pm 17:16 Sunny 57 14 37 3 48 48 W 8 13 30.06 1018 10 16.0934 N/A
5:37 pm 17:37 Sunny 57 14 37 3 48 48 WNW 9 15 30.06 1018 10 16.0934 N/A
5:57 pm 17:57 Sunny 55 13 37 3 51 51 W 9 15 30.06 1018 10 16.0934 N/A
6:16 pm 18:16 Sunny 55 13 37 3 51 51 WNW 7 11 30.06 1018 10 16.0934 N/A
6:37 pm 18:37 Sunny 54 12 37 3 54 54 W 6 9 30.09 1019 10 16.0934 N/A
6:57 pm 18:57 Clear 52 11 37 3 58 58 WSW 6 9 30.09 1019 10 16.0934 N/A
7:16 pm 19:16 Clear 50 10 37 3 62 62 WSW 5 7 30.12 1020 10 16.0934 N/A
7:37 pm 19:37 Clear 48 9 39 4 71 71 SSW 3 6 30.09 1019 10 16.0934 N/A
7:56 pm 19:56 Clear 50 10 39 4 67 67 SSW 5 7 30.12 1020 10 16.0934 N/A
8:16 pm 20:16 Clear 46 8 39 4 76 76 SW 6 9 30.12 1020 10 16.0934 N/A
8:37 pm 20:37 Clear 48 9 37 3 66 66 SSW 5 7 30.12 1020 10 16.0934 N/A
8:56 pm 20:56 Clear 46 8 39 4 76 76 SW 6 9 30.12 1020 10 16.0934 N/A
9:17 pm 21:17 Partly Cloudy 48 9 37 3 66 66 SSW 6 9 30.09 1019 10 16.0934 N/A
9:36 pm 21:36 Mostly Cloudy 48 9 39 4 71 71 SW 7 11 30.09 1019 10 16.0934 N/A
9:57 pm 21:57 Cloudy 48 9 39 4 71 71 SW 7 11 30.09 1019 10 16.0934 N/A
10:17 pm 22:17 Cloudy 50 10 39 4 67 67 SSW 7 11 30.09 1019 10 16.0934 N/A
10:36 pm 22:36 Cloudy 50 10 39 4 67 67 SW 8 13 30.09 1019 10 16.0934 N/A
10:57 pm 22:57 Cloudy 50 10 39 4 67 67 SSW 7 11 30.09 1019 10 16.0934 N/A
11:17 pm 23:17 Mostly Cloudy 48 9 39 4 71 71 SW 5 7 30.09 1019 10 16.0934 N/A
11:36 pm 23:36 Mostly Cloudy 48 9 39 4 71 71 SW 6 9 30.09 1019 10 16.0934 N/A
11:57 pm 23:57 Mostly Cloudy 48 9 39 4 71 71 SSW 5 7 30.09 1019 10 16.0934 N/A

Powered by AerisWeather